Starlink 32513

operational
NORAD ID: 61964 Int'l Des: 2024-210 Owner: SPXS Country: US Constellation: starlink
LEOCIRCULAR

About Starlink 32513

Description loading...

Live Position

Loading 3D Globe...

Upcoming Passes

Altitude History

Altitude vs Time

uPlot chart will show altitude changes over time

Two-Line Element Set

1 61964U 24210F 25348.26995833 .00048274 00000-0 17517-2 0 9990
2 61964 43.0008 287.7362 0001283 299.5818 60.4906 15.27591201 62011
Epoch: Dec 14, 2025 • Age: 28 hours

Current Status

Altitude 486.2 km
Velocity 7.62 km/s
Sub-Earth Point -16.28°S, 115.6°W
Launch Date Nov 14, 2024
Age 1 years
Type internet

Technical Details

Classification Payload
Mass 730.00 kg
Dry Mass 700.00 kg
Total Mass 730.00 kg
Length 0.30 m
Diameter 4.10 m
Span 29.00 m
Shape Box + pan
Manufacturer SPXS
Bus Type Starlink V2M
Phase Status In Orbit
Owner/State SPXS/US

Large Constellations

Loading constellations...